[[{"header":{"parameterUnit":"m.s-1","parameterCategory":1,"la1":30.2991,"la2":30.254,"lo1":-89.0895,"lo2":-89.0444,"dy":0.0017,"dx":0.0017,"nx":28,"ny":28,"refTime":"2023-08-07T09:00:00:Z","depth":0,"parameterNumber":2,"parameterNumberName":"U-component_of_WINDS"},"data":[0,0,0,0,0,0,0,0,0,0,0,0,0,0,0,0,0,0,0,0,0,0,0,0,0,0,0,0,0,0,0,0,0,0,0,0,0,0,0,0,0,0,0,0,0,0,0,0,0,0,0,0,0,0,0,0,0,0,2.7425,2.7427,0,2.7582,2.7584,2.7586,2.7548,2.7545,2.7542,2.7539,2.7702,2.7709,2.7716,0,0,0,0,0,0,0,0,0,0,0,0,0,2.7091,2.7097,2.7425,2.7427,2.7429,2.7582,2.7584,2.7586,2.7548,2.7545,2.7541,2.7537,2.7699,2.7708,2.7716,0,0,0,0,0,0,0,0,0,0,0,0,0,2.7241,2.71,2.7424,2.7428,2.743,2.7581,2.7584,2.7587,2.7549,2.7544,2.754,2.7536,2.7697,2.7707,2.7718,2.7876,0,0,2.7751,2.7755,0,0,0,0,0,0,0,0,2.7233,2.7253,2.7426,2.7428,2.743,2.7541,2.7526,2.7684,2.755,2.7504,2.7539,2.7533,2.7652,2.7666,2.7706,2.7883,2.789,2.7752,2.7758,2.7763,2.7766,0,0,0,0,0,0,0,2.7222,2.7246,2.7487,2.7428,2.7431,2.7422,2.7438,2.7556,2.7602,2.7508,2.7505,2.7524,2.7652,2.7695,2.7709,2.7893,2.7751,2.7761,2.7767,2.7772,2.8206,2.8211,0,0,0,0,0,0,2.721,2.7238,2.7482,2.7492,2.7318,2.7432,2.745,2.751,2.76,2.761,2.7528,2.7522,2.7679,2.7697,2.7715,2.7905,2.7763,2.7773,2.7779,2.8201,2.8207,2.8213,0,0,0,0,0,0,2.7203,2.7232,2.7476,2.7364,2.7395,2.7442,2.751,2.7515,2.7558,2.7616,2.7624,2.7564,2.7676,2.77,2.7835,2.791,2.7778,2.7787,2.8195,2.8203,2.821,2.8287,0,0,0,0,0,0,2.7193,2.723,2.729,2.7366,2.7401,2.7594,2.7515,2.7522,2.7577,2.757,2.7651,2.766,2.7675,2.782,2.7846,2.7922,2.7796,2.8189,2.8199,2.8208,2.8278,2.8296,2.8312,0,0,0,0,0,2.7182,2.7306,2.7294,2.7323,2.7477,2.7598,2.7618,2.7632,2.7583,2.7644,2.7681,2.7658,2.7897,2.7834,2.7863,2.7944,2.8184,2.8196,2.8207,2.827,2.8293,2.8311,0,0,0,0,0,0,2.7239,2.7316,2.7303,2.7456,2.7521,2.7592,2.7669,2.7655,2.7736,2.7726,2.774,2.7758,2.7897,2.7934,2.7862,2.8101,2.8034,2.8052,2.8072,2.8093,2.811,2.8098,2.7805,0,0,0,0,0,2.727,2.7361,2.7424,2.7552,2.7585,2.7622,2.7675,2.768,2.7747,2.7775,2.7821,2.7888,2.7978,2.8038,2.8124,2.8283,2.8299,2.8353,2.8369,2.8383,2.8399,2.8484,2.8508,2.825,2.825,2.825,0,0,2.7334,2.7387,2.7444,2.7565,2.7616,2.771,2.7645,2.7748,2.7818,2.7791,2.7921,2.7958,2.8033,2.8181,2.8248,2.8216,2.8473,2.8398,2.8408,2.8416,2.8498,2.8522,2.8544,2.8258,2.8257,2.8255,0,0,2.7498,2.7548,2.766,2.7712,2.7789,2.7812,2.7839,2.7912,2.7935,2.8066,2.8047,2.813,2.8286,2.834,2.8388,2.8571,2.8553,2.8599,2.8688,2.8771,2.8791,2.8809,2.8874,2.8897,2.8614,2.8614,2.8614,0,2.7568,2.771,2.772,2.7825,2.7878,2.7856,2.797,2.8019,2.8121,2.8159,2.8121,2.8314,2.8364,2.8523,2.8567,2.8607,2.8638,2.859,2.8787,2.8805,2.8822,2.8884,2.8909,2.8619,2.8619,2.8618,2.8618,0,2.7791,2.7889,2.7971,2.8069,2.8131,2.824,2.8266,2.8328,2.8327,2.8354,2.8487,2.8545,2.8642,2.868,2.8681,2.8839,2.8817,2.8783,2.8716,2.8852,2.891,2.8934,2.8626,2.8625,2.8623,2.8622,0,0,2.7999,2.8099,2.8129,2.8172,2.8255,2.8331,2.8438,2.8532,2.8584,2.8655,2.8745,2.8875,2.8844,2.8899,2.8904,2.8977,2.9117,2.8934,2.8936,2.8966,2.9295,2.932,2.9347,2.9105,2.911,2.9113,2.9288,0,2.817,2.8358,2.837,2.8541,2.8631,2.861,2.8703,2.8764,2.8791,2.8872,2.8902,2.8994,2.8946,2.8979,2.905,2.9085,2.9184,2.9073,2.9189,2.9193,2.9171,2.9378,2.9405,2.9568,2.9311,2.9315,2.9318,0,2.8396,2.8472,2.8652,2.872,2.8758,2.8842,2.8928,2.9005,2.9073,2.9088,2.9147,2.9142,2.9252,2.918,2.933,2.9254,2.9302,2.9327,2.9333,2.9345,2.9264,2.9395,2.962,2.9644,2.9354,2.9351,2.9349,0,2.8529,2.8676,2.8802,2.884,2.8923,2.8982,2.9019,2.9082,2.9137,2.9213,2.9249,2.9336,2.9384,2.9452,2.947,2.9416,2.962,2.955,2.9635,2.9635,2.968,2.9677,2.9915,2.971,2.971,2.9709,2.9709,0,2.872,2.883,2.8862,2.894,2.9062,2.9074,2.9195,2.9229,2.9285,2.9368,2.9356,2.9434,2.9454,2.9536,2.9551,2.9673,2.9695,2.971,2.9712,2.9711,2.9709,2.9743,2.9732,2.9716,2.9714,2.9713,2.9712,0,2.8889,2.8915,2.9051,2.9117,2.9137,2.9224,2.9281,2.9355,2.938,2.9486,2.9511,2.9551,2.9647,2.9671,2.9786,2.9796,2.994,2.9932,2.9917,2.9917,3.0,2.9992,3.0269,3.0306,3.0077,3.0079,3.0081,0,2.9009,2.9093,2.9169,2.9223,2.9263,2.9351,2.9407,2.9422,2.948,2.9563,2.9627,2.9721,2.9797,2.9951,2.999,3.0077,3.0071,3.0162,3.0084,3.008,3.0072,3.0067,3.0075,3.0177,3.018,3.0182,3.0183,0,2.9219,2.9228,2.9309,2.9394,2.9461,2.9529,2.9594,2.9639,2.9663,2.9729,2.9826,2.9885,3.0001,3.0095,3.0182,3.022,3.0206,3.0207,3.0231,3.0231,3.0219,3.0226,2.9957,3.0201,3.0199,3.0198,3.0197,3.0196,2.9368,2.9441,2.9505,2.9595,2.9646,2.9706,2.9779,2.9812,2.9893,2.9989,2.9992,3.0098,3.0162,3.0278,3.0321,3.0403,3.0376,3.0411,3.042,3.0429,3.0436,3.0205,3.0419,3.0419,3.0418,3.0418,3.0418,0,2.9577,2.9617,2.97,2.9791,2.9861,2.984,2.9911,2.9971,3.0064,3.0125,3.0199,3.031,3.04,3.0445,3.0535,3.0592,3.0587,3.0615,3.0611,3.062,3.0456,3.0426,3.0617,3.0617,3.0617,3.0617,3.0617,3.0617,2.9695,2.9817,2.9833,2.998,3.0019,3.0122,3.0164,3.0219,3.0268,3.0392,3.0466,3.0495,3.0549,3.0642,3.0723,3.0734,3.0767,3.0798,3.0806,3.0652,3.0631,3.0612,3.0584,3.0805,3.0806,3.0963,3.0964,3.0965]},{"header":{"parameterUnit":"m.s-1","parameterCategory":1,"la1":30.2991,"la2":30.254,"lo1":-89.0895,"lo2":-89.0444,"dy":0.0017,"dx":0.0017,"nx":28,"ny":28,"refTime":"2023-08-07T09:00:00:Z","depth":0,"parameterNumber":3,"parameterNumberName":"V-component_of_WINDS"},"data":[0,0,0,0,0,0,0,0,0,0,0,0,0,0,0,0,0,0,0,0,0,0,0,0,0,0,0,0,0,0,0,0,0,0,0,0,0,0,0,0,0,0,0,0,0,0,0,0,0,0,0,0,0,0,0,0,0,0,6.8344,6.8346,0,6.8531,6.8534,6.8536,6.8487,6.8483,6.8479,6.8476,6.8659,6.8667,6.8676,0,0,0,0,0,0,0,0,0,0,0,0,0,6.7934,6.7942,6.8344,6.8346,6.8349,6.8531,6.8534,6.8536,6.8487,6.8483,6.8478,6.8474,6.8657,6.8666,6.8676,0,0,0,0,0,0,0,0,0,0,0,0,0,6.8116,6.7945,6.8344,6.8347,6.8349,6.8531,6.8534,6.8537,6.8488,6.8483,6.8477,6.8472,6.8653,6.8665,6.8678,6.8866,0,0,6.8716,6.8721,0,0,0,0,0,0,0,0,6.8106,6.8131,6.8344,6.8347,6.835,6.848,6.8456,6.8647,6.849,6.8435,6.8476,6.8469,6.8604,6.862,6.8667,6.8874,6.8882,6.8717,6.8725,6.873,6.8734,0,0,0,0,0,0,0,6.8093,6.8123,6.8418,6.8347,6.835,6.8335,6.8355,6.8492,6.8548,6.8439,6.8436,6.846,6.8604,6.8655,6.8671,6.8885,6.8717,6.8728,6.8735,6.874,6.9252,6.9257,0,0,0,0,0,0,6.808,6.8113,6.8412,6.8424,6.8212,6.8347,6.8369,6.8444,6.8546,6.8557,6.8464,6.8457,6.8636,6.8656,6.8677,6.8902,6.873,6.8742,6.8749,6.9246,6.9253,6.926,0,0,0,0,0,0,6.8071,6.8107,6.8404,6.8267,6.8304,6.836,6.8444,6.845,6.8501,6.8565,6.8574,6.8507,6.8633,6.8659,6.8819,6.8908,6.8747,6.8759,6.9238,6.9248,6.9256,6.9354,0,0,0,0,0,0,6.806,6.8104,6.8179,6.827,6.8312,6.8547,6.845,6.8458,6.8524,6.8516,6.8607,6.8617,6.863,6.8801,6.8831,6.8922,6.8768,6.9231,6.9243,6.9253,6.9344,6.9366,6.9385,0,0,0,0,0,6.8045,6.8198,6.8183,6.8219,6.8407,6.8552,6.8576,6.8591,6.8531,6.8605,6.8645,6.8614,6.8893,6.8817,6.8852,6.8947,6.9225,6.9239,6.9253,6.9334,6.9361,6.9384,0,0,0,0,0,0,6.8114,6.821,6.8194,6.8382,6.8459,6.8544,6.8637,6.8619,6.8713,6.8702,6.8713,6.8734,6.8897,6.8938,6.8852,6.9132,6.905,6.9071,6.91,6.9127,6.9147,6.9133,6.8779,0,0,0,0,0,6.8151,6.8264,6.8341,6.8498,6.8538,6.8581,6.8645,6.865,6.8729,6.8761,6.8813,6.8889,6.8994,6.9062,6.9162,6.9349,6.9366,6.9431,6.9452,6.9468,6.9486,6.9585,6.9614,6.9305,6.9305,6.9304,0,0,6.8228,6.8295,6.8365,6.8514,6.8574,6.8688,6.8609,6.8733,6.8816,6.8779,6.8933,6.8974,6.9059,6.9233,6.9311,6.9272,6.9576,6.9486,6.9499,6.9508,6.9602,6.9631,6.9657,6.9314,6.9312,6.9311,0,0,6.8428,6.8491,6.8628,6.8691,6.8784,6.8811,6.8844,6.8931,6.8957,6.9113,6.9086,6.9183,6.9364,6.9425,6.948,6.97,6.9673,6.9732,6.9839,6.9936,6.996,6.9982,7.0058,7.0086,6.9749,6.975,6.975,0,6.8512,6.8685,6.87,6.8827,6.8891,6.8864,6.9001,6.906,6.918,6.9224,6.9178,6.9403,6.9458,6.9644,6.9698,6.9744,6.9779,6.9721,6.9956,6.9978,6.9998,7.0071,7.01,6.9756,6.9755,6.9755,6.9754,0,6.8782,6.8903,6.9001,6.9121,6.9196,6.9327,6.9359,6.9432,6.943,6.946,6.9616,6.9682,6.9794,6.9838,6.9836,7.0023,6.9995,6.9953,6.987,7.0034,7.0102,7.013,6.9765,6.9763,6.9761,6.9759,0,0,6.9032,6.9157,6.9193,6.9245,6.9345,6.9437,6.9564,6.9676,6.9738,6.9821,6.9926,7.0078,7.0039,7.0101,7.0105,7.019,7.0357,7.0136,7.0138,7.0174,7.0564,7.0595,7.0627,7.034,7.0345,7.035,7.0556,0,6.9239,6.9468,6.9484,6.9689,6.9798,6.9773,6.9883,6.9955,6.9986,7.0081,7.0113,7.0221,7.0162,7.0199,7.0282,7.0319,7.0435,7.0304,7.0435,7.044,7.0414,7.0664,7.0698,7.089,7.0583,7.0588,7.0591,0,6.9512,6.9605,6.9822,6.9905,6.9951,7.0051,7.0153,7.0245,7.0323,7.0339,7.0408,7.04,7.0527,7.0439,7.0613,7.0524,7.0577,7.0603,7.0611,7.0623,7.0525,7.0681,7.0951,7.098,7.0634,7.063,7.0627,0,6.967,6.985,7.0002,7.0048,7.0149,7.0219,7.0263,7.0337,7.0402,7.0489,7.0531,7.0631,7.0686,7.0762,7.078,7.0715,7.0952,7.0867,7.0967,7.0966,7.1018,7.1014,7.1299,7.1054,7.1054,7.1053,7.1052,0,6.99,7.0033,7.0075,7.0168,7.0315,7.033,7.0474,7.0513,7.0579,7.0677,7.066,7.0751,7.0769,7.0863,7.0877,7.1017,7.1042,7.1056,7.1058,7.1058,7.1056,7.1093,7.108,7.1061,7.1059,7.1057,7.1056,0,7.0102,7.0136,7.03,7.0382,7.0405,7.051,7.0577,7.0665,7.0694,7.0818,7.0847,7.0891,7.1001,7.1026,7.1156,7.1165,7.1331,7.132,7.1305,7.1304,7.1402,7.1392,7.1721,7.1763,7.1491,7.1493,7.1495,0,7.0247,7.0349,7.0441,7.0507,7.0555,7.0661,7.0728,7.0745,7.0814,7.091,7.0985,7.1094,7.1182,7.1357,7.1399,7.1497,7.1488,7.1596,7.1502,7.1498,7.1487,7.1481,7.149,7.1613,7.1616,7.1619,7.1621,0,7.0498,7.0509,7.0608,7.0712,7.0792,7.0873,7.0951,7.1005,7.1032,7.1109,7.1223,7.1291,7.1424,7.153,7.1629,7.167,7.1649,7.165,7.1678,7.1678,7.1665,7.1672,7.1353,7.1642,7.164,7.1639,7.1637,7.1636,7.0675,7.0764,7.0843,7.0952,7.1012,7.1085,7.1171,7.121,7.1306,7.1418,7.1421,7.1543,7.1615,7.1746,7.1793,7.1887,7.1853,7.1894,7.1904,7.1914,7.1922,7.1651,7.1905,7.1904,7.1903,7.1903,7.1903,0,7.0925,7.0974,7.1075,7.1185,7.1269,7.1244,7.1328,7.14,7.1509,7.158,7.1666,7.1795,7.1897,7.1946,7.2047,7.2112,7.2105,7.2138,7.2132,7.2142,7.1948,7.1913,7.2142,7.2142,7.2142,7.2142,7.2142,7.2141,7.1065,7.1214,7.1233,7.141,7.1457,7.1579,7.1629,7.1694,7.175,7.1896,7.1982,7.2014,7.2074,7.2179,7.227,7.2281,7.2318,7.2356,7.2363,7.218,7.2156,7.2133,7.21,7.2364,7.2365,7.2549,7.2551,7.2552]}]]